www.pogodaiklimat.ru

Погода и климат >> Архив погоды >> Россия >> Якутия >> Сого-Хая


ПОГОДА в Сого-Хае

  • Прогноз погоды в Сого-Хае
  • Монитор погоды в Сого-Хае

АРХИВ ПОГОДЫ в Сого-Хае

Время (UTC), дата Ветер
(напр.,м/с)
 
Видим.   Явления Облачность Т
(С)
Тd
(С)
f
(%)
Тe
(С)
Тes
(С)
Комфортность P
(гПа)
Po
(гПа)
Тmin
(С)
Tmax
(С)
R
(мм)
R24
(мм)
S
(см)
09 15.02 ЮВ 4 50 км позёмок 10/0
[As trans Cs]
-27.8 -30.3 79 -39 -39 опасность
обморожения
1010.1 998.2
12 15.02 ЮВ 4 10 км слаб. снег {метель} 10/0
[As op]
-28.1 -30.5 80 -39 -39 опасность
обморожения
1008.1 996.2 -27.0 0.7
15 15.02 ЮВ 4 10 км слаб. снег {метель} 10/0
[As op]
-28.3 -30.7 80 -39 -39 опасность
обморожения
1007.8 995.9
18 15.02 ЮВ 4 10 км слаб. снег {метель} 10/0
[As op]
-28.8 -31.2 80 -40 -40 опасность
обморожения
1007.0 995.1
21 15.02 ЮВ 4 50 км позёмок {снег} 10/0
[As trans Cs]
-29.2 -31.6 80 -40 -40 опасность
обморожения
1006.6 994.7
00 16.02 ЮВ 5 50 км позёмок {снег} 9/0
[Cs]
-29.5 -32.0 79 -42 -42 опасность
обморожения
1004.9 993.0 -29.5 0.7 36
03 16.02 ЮВ 4 10 км слаб. снег {метель} 10/0
[As op Cs]
-26.2 -28.7 79 -37 -36 опасность
обморожения
1002.0 990.2
06 16.02 ЮВ 3 50 км {снег, метель} 8/0
[Cs]
-25.2 -28.4 75 -34 -33 опасность
обморожения
1000.5 988.8
09 16.02 В 1 50 км 8/0
[Ci fib]
-28.7 -31.2 79 -33 -33 опасность
обморожения
1001.9 990.0
12 16.02 В 1 50 км 8/0
[Ci fib]
-30.7 -33.0 80 -35 -35 опасность
обморожения
1003.6 991.6 -25.1 0.3
15 16.02 ЮВ 1 50 км 8/0
[Ci fib]
-32.4 -34.8 79 -37 -37 опасность
обморожения
1003.8 991.7
18 16.02 штиль 0 50 км 8/0
[Ci fib]
-33.2 -35.6 79 -33 -33 опасность
обморожения
1003.8 991.7
21 16.02 штиль 0 50 км 6/0
[Ci fib]
-34.4 -36.8 79 -34 -34 опасность
обморожения
1003.6 991.4
00 17.02 З 1 50 км 4/0
[Ci fib]
-37.5 -39.9 78 -42 -42 опасность
обморожения
1005.7 992.4 -37.6 36
03 17.02 З 4 50 км позёмок ясно -32.6 -34.8 81 -44 -44 опасность
обморожения
1006.4 994.3
06 17.02 СЗ 4 50 км позёмок ясно -26.8 -29.3 79 -37 -37 опасность
обморожения
1007.4 995.6
09 17.02 З 3 50 км {метель} ясно -26.9 -29.3 80 -36 -36 опасность
обморожения
1008.9 997.1
12 17.02 СЗ 3 50 км {метель} ясно -28.2 -30.7 79 -37 -37 опасность
обморожения
1009.2 997.3 -26.6
15 17.02 З 3 50 км ясно -29.0 -31.4 80 -38 -38 опасность
обморожения
1009.2 997.3
18 17.02 СЗ 3 50 км ясно -30.7 -33.0 80 -40 -40 опасность
обморожения
1008.8 996.8
21 17.02 СЗ 3 50 км ясно -32.2 -34.6 79 -42 -42 опасность
обморожения
1008.3 996.2
00 18.02 штиль 0 50 км ясно -33.8 -36.2 79 -34 -34 опасность
обморожения
1009.2 997.1 -34.1 36
03 18.02 В 2 50 км ясно -29.8 -32.2 80 -37 -36 опасность
обморожения
1010.4 998.4
06 18.02 В 3 50 км ясно -25.9 -29.1 74 -35 -34 опасность
обморожения
1011.7 999.9
09 18.02 В 3 50 км ясно -26.0 -28.4 80 -35 -35 опасность
обморожения
1012.8 1001.0
12 18.02 В 3 50 км ясно -26.6 -29.0 80 -36 -36 опасность
обморожения
1024.5 1002.6 -25.2
15 18.02 В 3 50 км ясно -27.2 -29.6 80 -36 -36 опасность
обморожения
1014.7 1002.8
18 18.02 В 3 50 км ясно -28.4 -30.8 80 -38 -38 опасность
обморожения
1014.9 1002.9
21 18.02 В 3 50 км ясно -30.2 -32.6 79 -40 -40 опасность
обморожения
1015.1 1003.0
00 19.02 В 4 50 км позёмок 4/0
[Ci fib]
-30.8 -33.2 79 -42 -42 опасность
обморожения
1015.4 1003.3 -31.0 36
03 19.02 В 5 50 км позёмок 6/0
[Ci fib]
-27.4 -30.5 75 -39 -39 опасность
обморожения
1015.7 1003.8
06 19.02 В 5
{10}
50 км позёмок 6/0
[Ci fib]
-23.8 -27.0 75 -35 -34 опасность
обморожения
1014.9 1003.2
09 19.02 ЮВ 5 50 км позёмок 8/0
[Ci fib]
-22.7 -25.9 75 -33 -33 опасность
обморожения
1014.2 1002.5
12 19.02 ЮВ 6-10
{12}
50 км позёмок 8/0
[Ci fib]
-22.5 -25.7 75 -34 -34 опасность
обморожения
1014.3 1002.6 -22.3
15 19.02 ЮВ 5 50 км позёмок 4/0
[Ci fib]
-23.4 -25.9 80 -34 -34 опасность
обморожения
1014.3 1002.6
18 19.02 ЮВ 5 50 км позёмок 4/0
[Ci fib]
-23.9 -26.4 80 -35 -35 опасность
обморожения
1014.4 1002.7
21 19.02 ЮВ 4 50 км позёмок 3/0
[Ci fib]
-24.8 -27.3 80 -35 -35 опасность
обморожения
1014.7 1002.9
00 20.02 В 1 50 км {метель} ясно -28.4 -30.8 80 -32 -32 опасность
обморожения
1016.3 1004.3 -28.8 35
03 20.02 штиль 0 50 км ясно -25.1 -28.3 75 -25 -23 1017.2 1005.4
06 20.02 штиль 0 50 км ясно -24.1 -27.4 74 -24 -23 1018.1 1006.3
09 20.02 штиль 0 50 км ясно -21.4 -23.9 80 -21 -21 1018.9 1007.2
12 20.02 штиль 0 50 км ясно -22.0 -26.1 69 -22 -22 1019.5 1007.8 -21.2
18 20.02 штиль 0 50 км ясно -28.0 -30.5 79 -28 -28 1020.2 1008.1
21 20.02 штиль 0 50 км ясно -29.9 -32.4 79 -30 -30 1020.3 1008.2
00 21.02 штиль 0 50 км ясно -30.9 -33.2 80 -31 -31 опасность
обморожения
1020.6 1008.4 -30.9 35
03 21.02 З 1 50 км ясно -28.9 -31.4 79 -33 -31 опасность
обморожения
1020.2 1008.1
06 21.02 З 1 50 км ясно -26.7 -29.2 79 -30 -30 1019.9 1007.9
09 21.02 штиль 0 50 км ясно -25.3 -28.4 75 -25 -25 1029.8 1007.9
12 21.02 штиль 0 50 км ясно -25.4 -18.5 100 -25 -25 1020.4 1008.5 -25.1
15 21.02 штиль 0 50 км ясно -28.4 -30.8 80 -28 -28 1020.8 1008.7
18 21.02 штиль 0 50 км ясно -30.1 -32.6 79 -30 -30 1021.2 1009.0
21 21.02 штиль 0 50 км ясно -33.2 -35.0 84 -33 -33 опасность
обморожения
1021.5 1009.2
00 22.02 штиль 0 50 км ясно -34.9 -37.1 80 -35 -35 опасность
обморожения
1021.7 1009.3 -35.1 35
03 22.02 В 1 50 км ясно -28.8 -31.2 80 -33 -31 опасность
обморожения
1020.7 1008.6
06 22.02 В 1 50 км ясно -25.6 -28.8 74 -29 -28 1020.1 1008.2

 

Местоположение метеостанции Сого-Хая (Якутия, Россия): широта 64.28 долгота 126.40 высота над уровнем моря 85 м.

В архиве по умолчанию представлена погода в Сого-Хае за последнюю неделю. Архивные данные за месяц целиком и за предыдущие месяцы, начиная с января 2011 года, Вы можете получить, выбрав интересующий диапазон дат из раскрывающегося списка и нажав кнопку "Ввод!".


*Определитесь, кто Вы:
робот инопланетянин человек

Внимание! Время в таблицах - всемирное. Для получения местного времени необходимо прибавить поправку, которая равна 9 ч.

Смотрите также архив погоды в соседних городах и на ближайших метеорологических станциях:

Погода в Сангаре (Якутия, Россия) (61 км)
Погода в Хатырык-Хомо (Якутия, Россия) (86 км)
Погода в Бестяхской Звероферме (Якутия, Россия) (157 км)
Погода в Батамае (Якутия, Россия) (169 км)
Погода в Сеген-Кюеле (Якутия, Россия) (192 км)
Погода в Себян-Кюеле (Якутия, Россия) (205 км)
Погода в Бердигестяхе (Якутия, Россия) (226 км)
Погода в Намцах (Якутия, Россия) (235 км)
Погода в Вилюйске (Якутия, Россия) (241 км)
Погода в Тонгулахе (Якутия, Россия) (279 км)

Пояснения к столбцам:

Ветер - указаны скорость ветра в м/с - средняя за 10 мин, порывы в срок и между сроками (в фигурных скобках) и направление, откуда дует ветер: С - северный, СВ - северо-восточный, В - восточный, ЮВ - юго-восточный, Ю - южный, ЮЗ - юго-западный, З - западный, СЗ - северо-западный.
Видимость - горизонтальная дальность видимости в метрах или километрах. При видимости от 1 до 10 км при отсутствии осадков обычно наблюдается дымка, при ухудшении видимости до 1 км и менее - туман. В сухую погоду видимость может ухудшаться дымом, пылью или мглою.
Явления - указаны атмосферные явления, наблюдавшиеся в срок или в последний час перед сроком; фигурными скобками обозначены явления, наблюдавшиеся между сроками (за 1-3 часа до срока); квадратными скобками обозначены град или гололедные отложения с указанием их диаметра в мм.
Облачность - указаны через наклонную черту общая и нижняя облачность в баллах и высота нижней границы облаков в метрах; квадратными скобками обозначены формы облаков: Ci - перистые, Cs - перисто-слоистые, Cc - перисто-кучевые, Ac - высококучевые, As - высокослоистые, Sc - слоисто-кучевые, Ns - слоисто-дождевые, Cu - кучевые, Cb - кучево-дождевые. Подробнее классификацию облаков см. в Атласе облаков (PDF).
T - Температура воздуха - температура, измеренная на высоте 2 м над землей.
Td - Температура точки росы - температура, при понижении до которой содержащийся в воздухе водяной пар достигнет насыщения.
f - Относительная влажность воздуха - влажноcть воздуха, измеренная на высоте 2 м над землей.
Te - Эффективная температура - температура, которую ощущает одетый по сезону человек в тени. Характеристика душности погоды. При расчете учитывается влияние влажности воздуха и скорости ветра на теплоощущения человека.
Tes - Эффективная температура на солнце - температура, которую ощущает человек, с поправкой на солнечный нагрев. Характеристика знойности погоды. Зависит от высоты солнца над горизонтом, облачности и скорости ветра. Ночью, в пасмурную погоду, а также при ветре 12 м/с и более поправка равна нулю.
P - Атмосферное давление - приведенное к уровню моря атмосферное давление.
Po - Атмосферное давление - измеренное на уровне метеостанции атмосферное давление.
Tmin - Минимальная температура - минимум температуры воздуха на высоте 2 м над землей.
Tmax - Максимальная температура - максимум температуры воздуха на высоте 2 м над землей.
R - Количество осадков - Количество выпавших осадков за период времени, мм. При наведении курсора мыши на число - период времени, за который выпало указанное количество осадков.
R24 - Количество осадков - Количество выпавших осадков за 24 часа, мм.
S - Снежный покров - Высота снежного покрова, см. При наведении курсора мыши на число - состояние снежного покрова и степень покрытия местности в баллах.